Location: Radomski Observatory
(40.2854°N, 79.5145°W)
Time: 01:32:36
(UTC-05:00)

Daily predictions for brighter satellites

Satellite Brightness Start Highest point End
(mag) Time Altitude Azimuth Time Altitude Azimuth Time Altitude Azimuth
Cosmos 2237 Rocket 4.5 03:57:43 15° NNE 03:57:43 15° NNE 03:58:40 10° NNE
Atlas Centaur 2 3.7 04:16:09 39° S 04:16:09 39° S 04:23:40 10° ESE
Lacrosse 5 rocket 3.2 04:23:56 33° E 04:23:56 33° E 04:26:54 10° NE
SL-16 R/B 2.5 04:29:36 63° NE 04:29:36 63° NE 04:34:26 10° NNE
Cosmos 2123 Rocket 4.1 04:25:59 10° S 04:32:10 71° E 04:38:25 10° NNE
Cosmos 1725 Rocket 4.2 04:28:02 10° N 04:34:13 67° E 04:40:20 10° SSE
CZ-4B R/B 3.1 04:45:45 10° NNE 04:51:27 83° WNW 04:57:06 10° SSW
Meteor 1-26 Rocket 4.3 04:48:03 23° N 04:51:35 76° E 04:57:13 10° SSE
USA 229 DEB 3.8 04:49:12 38° NNW 04:52:21 82° NE 04:59:42 10° SE
USA 229 3.8 04:49:15 37° NNW 04:52:26 81° NE 04:59:47 10° SE
Cosmos 1503 Rocket 4.0 04:51:38 59° N 04:52:36 78° ENE 04:57:45 10° SSE
CZ-2C R/B 4.0 04:48:41 10° SSE 04:53:07 62° ENE 04:54:19 44° NNE
Cosmos 2369 Rocket 4.3 04:50:02 10° N 04:54:20 22° NE 04:58:37 10° ESE
Cosmos 2297 3.5 04:54:23 71° WNW 04:54:45 74° WSW 05:00:26 10° SSE
COSMO-SKYMED 1 4.3 04:51:48 10° SE 04:55:38 32° ENE 04:59:30 10° N
Cosmos 2016 Rocket 4.0 04:56:33 55° WSW 04:56:33 55° WSW 05:01:47 10° S
Cosmos 2084 Rocket 3.9 04:57:55 51° ENE 04:57:55 51° ENE 05:01:27 10° SE
Cosmos 2278 Rocket 4.4 05:05:28 10° SSW 05:05:28 10° SSW 05:05:30 10° SSW
IRS-1C Rocket 3.9 04:56:56 10° N 05:02:12 76° WNW 05:07:26 10° SSW
Meteor 2-12 Rocket 4.3 04:56:51 10° N 05:02:54 80° W 05:08:57 10° S
SL-8 R/B 4.5 05:01:30 33° SSW 05:03:09 47° SE 05:07:44 10° ENE
IDEFIX/ARIANE 42P 4.2 05:03:07 10° NNE 05:07:49 34° E 05:12:31 10° SSE
PSLV R/B 4.2 05:11:52 44° ESE 05:11:52 44° ESE 05:14:16 10° E
Cosmos 1862 Rocket 3.7 05:12:48 54° SW 05:12:48 54° SW 05:16:32 10° S
PAYLOAD B 4.5 05:08:22 10° N 05:13:29 46° WNW 05:13:29 46° WNW
MTI 4.1 05:13:19 10° SSE 05:16:29 63° ENE 05:16:33 63° ENE
Meteor 1-28 Rocket 3.1 05:14:22 10° S 05:17:47 66° SW 05:17:47 66° SW
Celestis-02/Orion 38 4.5 05:19:47 10° SSE 05:24:56 69° WSW 05:27:46 27° NW
Delta 2 Rocket 4.3 05:24:55 31° SSW 05:25:37 34° S 05:29:36 10° SE
EO 1 Del DPAF 3.4 05:22:28 10° SSE 05:26:17 71° ENE 05:29:32 14° N
Landsat 4 3.6 05:24:55 10° S 05:28:34 59° WSW 05:28:54 56° WNW
Cosmos 1354 Rocket 4.2 05:28:31 35° NW 05:30:13 47° WSW 05:35:12 10° S
Cosmos 1943 Rocket 4.0 05:28:06 10° N 05:32:58 28° NE 05:37:47 10° ESE
Okean 1-7 3.7 05:29:02 10° N 05:33:22 55° E 05:37:37 10° SSE
USA 32 4.0 05:31:52 10° SSW 05:36:59 56° W 05:42:08 10° N
Cosmos 2237 Rocket 4.1 05:39:35 13° NNW 05:39:35 13° NNW 05:40:57 10° NNW
Hubble Space Telescope 3.1 05:35:52 12° SSW 05:37:55 16° S 05:40:26 10° SE
Cosmos 1943 4.2 05:32:30 10° S 05:37:57 50° ESE 05:43:26 10° NE
SKYMED 2 3.4 05:39:13 10° S 05:43:32 75° WSW 05:47:54 10° NNW
Cosmos 2233 Rocket 4.0 05:38:45 10° NNW 05:44:42 54° W 05:50:38 10° SSW
ATLAS 5 CENTAUR R/B 2.6 05:42:58 10° SSW 05:47:22 51° ESE 05:52:08 10° NE
Cosmos 1825 2.1 05:46:53 10° SSW 05:50:36 60° W 05:54:21 10° N
Abrixas rocket 4.0 05:49:49 17° NNW 05:50:39 19° N 05:53:03 10° NE
DELTA 2 R/B (1) 3.8 05:48:34 24° W 05:51:57 64° SSW 05:57:28 10° ESE
BREEZE-M DEB (TANK) 3.8 05:50:45 23° NW 05:52:32 39° N 05:56:16 10° ENE
Meteor 1-27 Rocket 4.4 05:50:10 10° N 05:55:58 60° ENE 06:01:36 10° SSE
Cosmos 2221 Rocket 3.5 05:54:53 10° N 05:59:22 83° W 06:03:52 10° S
Meteor 2-3 Rocket 4.4 05:54:50 10° SW 05:59:56 32° WNW 06:05:01 10° N
Intercosmos 25 3.3 05:56:58 10° NNW 06:00:16 56° W 06:04:40 10° S
Okean-O 2.9 05:57:10 10° N 06:01:24 45° WNW 06:05:36 10° SW
Lacrosse 5 rocket 2.5 05:59:41 21° W 06:01:52 31° NW 06:06:01 10° NNE
Meteor 1-10 Rocket 4.3 05:57:33 10° NNW 06:03:29 71° W 06:09:21 10° S
Atlas Centaur 2 4.3 05:58:47 11° WSW 06:05:05 28° SSW 06:12:03 10° SE
SJ-12 4.3 06:01:12 10° NNE 06:05:19 67° E 06:09:23 10° S
Cosmos 1703 Rocket 4.1 06:07:20 10° NNW 06:11:20 36° W 06:15:18 10° SSW
Cosmos 1513 Rocket 4.4 06:06:14 10° N 06:12:21 88° WSW 06:18:24 10° S
Cosmos 1441 Rocket 3.0 06:09:15 10° NNW 06:13:03 81° W 06:16:46 10° S
SL-16 R/B 3.6 06:11:34 15° WNW 06:13:31 17° NW 06:17:14 10° N
Cosmos 1606 3.4 06:10:31 10° NNW 06:13:57 33° W 06:17:24 10° SSW
Cosmos 1869 Rocket 3.9 06:11:43 10° SSW 06:15:50 41° WNW 06:20:01 10° N
Cosmos 1603 4.1 06:12:37 10° SW 06:17:56 41° WNW 06:23:18 10° N
COSMOS 2441 4.4 06:13:02 10° NNE 06:17:58 89° WNW 06:22:51 10° SSW
Cosmos 1777 Rocket 4.1 06:13:48 10° NNW 06:19:02 80° ENE 06:24:14 10° SSE
NOSS 3-1 (C) 4.3 06:14:40 10° NW 06:22:13 56° WSW 06:30:28 10° SSE
SMAP 4.1 06:19:30 10° NNE 06:24:03 52° E 06:28:35 10° S
Cosmos 1891 Rocket 4.4 06:18:23 10° NNW 06:24:24 73° W 06:30:29 10° S
Cosmos 1782 3.8 06:22:40 10° NNW 06:25:58 26° W 06:29:16 10° SSW
SAR-Lupe-3 4.5 06:25:57 10° S 06:29:29 74° WSW 06:33:05 10° NNW
CZ-2C R/B 2.7 06:25:55 10° N 06:30:56 50° WNW 06:35:49 10° SSW
COSMO-SKYMED 1 3.8 06:28:28 10° SW 06:31:49 22° W 06:35:11 10° NW
ATLAS 2AS CENTAUR R/B 4.3 06:25:49 10° NNW 06:33:01 35° NE 06:39:47 10° ESE
Cosmos 1408 4.2 06:32:07 10° WSW 06:34:26 16° WNW 06:36:46 10° NW
Cosmos 2369 Rocket 2.3 06:33:15 10° NNW 06:38:43 55° WSW 06:44:09 10° S
Ariane Rocket 3.2 06:35:08 10° NNE 06:40:14 79° ESE 06:45:16 10° S
Cosmos 405 Rocket 3.8 06:40:53 10° NW 06:43:56 24° W 06:47:01 10° SSW
Cosmos 2034 Rocket 4.1 06:38:28 10° NNW 06:44:36 59° W 06:50:38 10° S
SL-8 R/B 4.0 06:41:06 10° W 06:45:43 48° NNW 06:50:21 10° NE
Thor Agena Rocket 3.8 06:41:38 10° S 06:46:34 50° W 06:51:30 10° NNW
NOSS 3-1 (A) 4.4 06:39:11 10° NW 06:46:43 53° WSW 06:54:54 10° S
BREEZE-M DEB (TANK) 4.3 06:46:05 10° W 07:00:11 39° NNW 07:03:50 10° NE
